Regional Weather Roundup
Issued by NWS

Home | Current Version | Previous Version | Text Only | Print | Product List | Glossary Off
Versions: 1 2 3 4 5 6 7 8 9 10 11 12 13 14 15 16 17 18 19 20 21 22 23 24 25 26 27 28 29 30 31 32 33 34 35 36 37 38 39 40 41 42 43 44 45 46 47 48 49 50

000
ASUS43 KLOT 310006
RWRIL

ILLINOIS REGIONAL WEATHER ROUNDUP
NATIONAL WEATHER SERVICE CHICAGO/ROMEOVILLE IL
600 PM CST FRI JAN 30 2015

NOTE: "FAIR" INDICATES FEW OR NO CLOUDS BELOW 12,000 FEET WITH NO
SIGNIFICANT WEATHER AND/OR OBSTRUCTIONS TO VISIBILITY.

* THESE STATIONS ARE NOT UNDER NWS QUALITY CONTROL. THEY ALSO MAY NOT
  REPORT WEATHER SUCH AS PRECIPITATION OR FOG.

ILZ001-002-007-009-015-016-024-310100-
NORTHWEST ILLINOIS

CITY           SKY/WX    TMP DP  RH WIND       PRES   REMARKS
MOLINE         CLEAR     27  17  66 S3        30.42F
6HR MIN TEMP:  26; 6HR MAX TEMP:  31;

STERLING*      CLEAR     21  14  73 CALM      30.43S
SAVANNA*       CLEAR     25  15  65 SW3       30.43S
$$

ILZ003-004-008-010-011-017-018-310100-
NORTH CENTRAL ILLINOIS

CITY           SKY/WX    TMP DP  RH WIND       PRES   REMARKS
ROCKFORD       PTCLDY    24  14  65 SW6       30.43F WCI  17
6HR MIN TEMP:  24; 6HR MAX TEMP:  29;

FREEPORT*      CLEAR     21  14  75 S7        30.43S WCI  12
ROCHELLE*      CLEAR     22  16  75 S5        30.44R WCI  16
DE KALB*       CLEAR     21  13  72 SW6       30.42S WCI  14
PERU*          CLEAR     26  18  72 CALM      30.45S
$$

ILZ005-006-012>014-019>023-310100-
NORTHEAST ILLINOIS

CITY           SKY/WX    TMP DP  RH WIND       PRES   REMARKS
CHICAGO-OHARE  CLEAR     25  11  55 W7        30.42S WCI  17
6HR MIN TEMP:  25; 6HR MAX TEMP:  30;

CHICAGO-MIDWAY PTCLDY    28  12  51 W8        30.43S WCI  20
6HR MIN TEMP:  28; 6HR MAX TEMP:  32;

AURORA         CLEAR     24  14  65 SW6       30.43F WCI  17
6HR MIN TEMP:  24; 6HR MAX TEMP:  29;

LANSING*       CLEAR     25  16  68 CALM      30.43F
JOLIET*        CLEAR     25  13  59 CALM      30.44S
WAUKEGAN       CLEAR     23   9  55 CALM      30.41S
6HR MIN TEMP:  23; 6HR MAX TEMP:  28;

DUPAGE AIRPORT CLEAR     23  13  65 SW6       30.42S WCI  16
6HR MIN TEMP:  23; 6HR MAX TEMP:  29;

KANKAKEE*      CLEAR     26  21  79 SW3       30.44F
WHEELING       CLEAR     26   9  48 W6        30.43F WCI  19
6HR MIN TEMP:  26; 6HR MAX TEMP:  30;

MORRIS*        CLEAR     24  19  83 NW5       30.44S WCI  18
ROMEOVILLE*    CLEAR     24  15  69 W5        30.44S WCI  18
NORTHERLY ISL    N/A     25  16  68 SE5         N/A  WCI  19
$$

LMZ740>746-310100-
SOUTHERN LAKE MICHIGAN

STATION/POSITION SKY/WX   TEMP    WIND        PRES    VSBY  WAVE
                          AIR SEA DIR/SP/G                  HT/PER
                          (F)     (DEG/KT/KT) (MB)    (MI)  (FT/S)
WAUKEGAN HARBOR            25     190/  8/  9   N/A
HARRISON CRIB              24     140/  5/  8   N/A
BURNHAM HARBOR             25     150/  5/  6   N/A
CALUMET HARBOR             25     100/  5/  5   N/A
MICHIGAN CITY              25      60/  1/  2   N/A
$$

ILZ025>027-034>036-040-047-049-050-058-095>099-310100-
WEST-CENTRAL ILLINOIS

CITY           SKY/WX    TMP DP  RH WIND       PRES   REMARKS
QUINCY         CLEAR     32  15  49 CALM      30.44S
GALESBURG*     CLEAR     27  20  73 CALM      30.43F
MACOMB*        CLEAR     31  22  71 CALM      30.46F
JACKSONVILLE*  CLEAR     32  19  60 CALM      30.46S
PITTSFIELD*    CLEAR     32  20  61 CALM      30.46S
$$

ILZ028>032-037-038-041>044-048-051>054-059>061-310100-
CENTRAL ILLINOIS

CITY           SKY/WX    TMP DP  RH WIND       PRES   REMARKS
PONTIAC        CLEAR     28  24  82 CALM      30.45S
BLOOMINGTON    CLEAR     27  20  75 SW6       30.44F WCI  21
DECATUR        CLEAR     29  20  69 CALM      30.46S
PEORIA         CLEAR     30  18  60 S6        30.45F WCI  24
6HR MIN TEMP:  30; 6HR MAX TEMP:  36;

LACON*         CLEAR     27  19  71 CALM      30.44S
LINCOLN*       CLEAR     31  22  69 CALM      30.47S
SPRINGFIELD    CLEAR     31  21  66 CALM      30.46S
6HR MIN TEMP:  30; 6HR MAX TEMP:  37;

TAYLORVILLE    CLEAR     32  21  64 CALM      30.47R
$$

ILZ033-039-045-046-055>057-062-063-310100-
EAST-CENTRAL ILLINOIS

CITY           SKY/WX    TMP DP  RH WIND       PRES   REMARKS
CHAMPAIGN      CLEAR     30  18  60 W3        30.45F
DANVILLE*      CLEAR     28  18  67 CALM      30.43S
RANTOUL*       CLEAR     30  19  65 CALM      30.44F
MATTOON        CLEAR     29  20  69 CALM      30.45S
PARIS*         CLEAR     28  22  78 CALM      30.47S
$$

ILZ079-100>102-310100-
SOUTHWEST ILLINOIS

CITY           SKY/WX    TMP DP  RH WIND       PRES   REMARKS
BELLEVILLE     CLEAR     33  21  61 E3        30.46S
CAHOKIA*       CLEAR     33  18  53 E3        30.46F
SPARTA*        PTCLDY    34  20  57 CALM      30.48S
$$

ILZ064>066-069>071-074>076-080>082-084>086-088>090-092>094-310100-
SOUTH-CENTRAL ILLINOIS

CITY           SKY/WX    TMP DP  RH WIND       PRES   REMARKS
CARBONDALE     PTCLDY    33  18  53 CALM      30.47S
6HR MIN TEMP:  33; 6HR MAX TEMP:  41;

CAIRO*         PTCLDY    40  21  47 CALM      30.46S
EFFINGHAM*     CLEAR     31  18  57 CALM      30.48S
MARION         PTCLDY    32  21  64 CALM      30.47F
MT. VERNON     CLEAR     30  16  55 CALM      30.47S
CENTRALIA*     CLEAR     32  21  63 NW3       30.46F
SALEM*         CLEAR     32  24  72 CALM      30.47S
METROPOLIS*    CLEAR     38  20  49 CALM      30.45S
$$

ILZ067-068-072-073-078-083-087-091-310100-
SOUTHEAST ILLINOIS

CITY           SKY/WX    TMP DP  RH WIND       PRES   REMARKS
LAWRENCEVILLE  CLEAR     31  21  66 N6        30.48S WCI  25
FLORA*         CLEAR     33  21  60 CALM      30.48S
FAIRFIELD*     CLEAR     33  20  59 CALM      30.47S
HARRISBURG*    CLEAR     34  22  62 NE3       30.48S
ROBINSON*      CLEAR     31  19  62 N3        30.49R
CARMI*         CLEAR     32  25  74 N3        30.47S
$$

ABBREVIATIONS USED IN REMARKS
   TC - TEMPERATURE IN CELSIUS
  WCI - WIND CHILL INDEX
   HX - HEAT INDEX
  VSB - VISIBILITY
$$




USA.gov is the U.S. government's official web portal to all federal, state and local government web resources and services.